Time,TemperatureF,DewpointF,PressureIn,WindDirection,WindDirectionDegrees,WindSpeedMPH,WindSpeedGustMPH,Humidity,HourlyPrecipIn,Conditions,Clouds,dailyrainin,SoftwareType,DateUTC
2013-06-03 00:01:00,56.2,51.1,29.84,SW,214,0.0,5.0,83,0.00,,,0.00,VWS V14.01,2013-06-03 04:01:00,
2013-06-03 00:06:00,56.2,51.1,29.84,SW,226,0.0,1.0,83,0.00,,,0.00,VWS V14.01,2013-06-03 04:06:00,
2013-06-03 00:11:00,56.1,51.0,29.84,SW,227,0.0,1.0,83,0.00,,,0.00,VWS V14.01,2013-06-03 04:11:00,
2013-06-03 00:16:00,56.1,51.3,29.84,SW,227,0.0,1.0,84,0.00,,,0.00,VWS V14.01,2013-06-03 04:16:00,
2013-06-03 00:21:00,56.0,51.2,29.84,SW,227,0.0,1.0,84,0.00,,,0.00,VWS V14.01,2013-06-03 04:21:00,
2013-06-03 00:26:00,56.0,51.2,29.84,WNW,302,0.0,2.0,84,0.00,,,0.00,VWS V14.01,2013-06-03 04:26:00,
2013-06-03 00:31:00,56.1,51.0,29.84,NNW,347,0.0,3.0,83,0.00,,,0.00,VWS V14.01,2013-06-03 04:31:00,
2013-06-03 00:36:00,56.1,50.7,29.84,SW,228,0.0,3.0,82,0.00,,,0.00,VWS V14.01,2013-06-03 04:36:00,
2013-06-03 00:41:00,56.2,50.5,29.84,South,176,0.0,3.0,81,0.00,,,0.00,VWS V14.01,2013-06-03 04:41:00,
2013-06-03 00:46:00,56.2,50.5,29.84,WNW,294,0.0,3.0,81,0.00,,,0.00,VWS V14.01,2013-06-03 04:46:00,
2013-06-03 00:51:00,56.2,50.1,29.84,SW,219,0.0,3.0,80,0.00,,,0.00,VWS V14.01,2013-06-03 04:51:00,
2013-06-03 00:56:00,56.2,50.1,29.84,West,278,0.0,3.0,80,0.00,,,0.00,VWS V14.01,2013-06-03 04:56:00,
2013-06-03 01:01:00,56.2,50.1,29.84,South,188,0.0,3.0,80,0.00,,,0.00,VWS V14.01,2013-06-03 05:01:00,
2013-06-03 01:06:00,56.2,50.1,29.84,East,82,1.0,4.0,80,0.00,,,0.00,VWS V14.01,2013-06-03 05:06:00,
2013-06-03 01:11:00,56.1,50.0,29.84,SE,145,0.0,4.0,80,0.00,,,0.00,VWS V14.01,2013-06-03 05:11:00,
2013-06-03 01:16:00,55.9,49.8,29.84,WSW,256,1.0,4.0,80,0.00,,,0.00,VWS V14.01,2013-06-03 05:16:00,
2013-06-03 01:21:00,55.7,49.6,29.84,South,180,0.0,4.0,80,0.00,,,0.00,VWS V14.01,2013-06-03 05:21:00,
2013-06-03 01:26:00,55.6,49.9,29.84,SSE,166,0.0,4.0,81,0.00,,,0.00,VWS V14.01,2013-06-03 05:26:00,
2013-06-03 01:31:00,55.4,49.7,29.84,SSE,166,0.0,4.0,81,0.00,,,0.00,VWS V14.01,2013-06-03 05:31:00,
2013-06-03 01:36:00,55.3,49.9,29.84,SE,129,0.0,4.0,82,0.00,,,0.00,VWS V14.01,2013-06-03 05:36:00,
2013-06-03 01:41:00,55.2,49.8,29.84,SE,128,0.0,4.0,82,0.00,,,0.00,VWS V14.01,2013-06-03 05:41:00,
2013-06-03 01:46:00,55.1,49.7,29.85,SE,124,0.0,4.0,82,0.00,,,0.00,VWS V14.01,2013-06-03 05:46:00,
2013-06-03 01:51:00,55.0,49.6,29.85,SE,124,0.0,4.0,82,0.00,,,0.00,VWS V14.01,2013-06-03 05:51:00,
2013-06-03 01:56:00,54.9,49.5,29.85,SSW,198,0.0,4.0,82,0.00,,,0.00,VWS V14.01,2013-06-03 05:56:00,
2013-06-03 02:01:00,54.9,49.5,29.85,SSW,198,0.0,4.0,82,0.00,,,0.00,VWS V14.01,2013-06-03 06:01:00,
2013-06-03 02:06:00,54.9,49.5,29.85,North,6,0.0,3.0,82,0.00,,,0.00,VWS V14.01,2013-06-03 06:06:00,
2013-06-03 02:11:00,54.9,49.5,29.85,SSE,163,0.0,3.0,82,0.00,,,0.00,VWS V14.01,2013-06-03 06:11:00,
2013-06-03 02:16:00,55.0,49.3,29.85,SSE,163,0.0,3.0,81,0.00,,,0.00,VWS V14.01,2013-06-03 06:16:00,
2013-06-03 02:21:00,55.0,49.3,29.85,SSE,163,0.0,3.0,81,0.00,,,0.00,VWS V14.01,2013-06-03 06:21:00,
2013-06-03 02:26:00,55.0,49.3,29.85,WNW,287,0.0,3.0,81,0.00,,,0.00,VWS V14.01,2013-06-03 06:26:00,
2013-06-03 02:31:00,55.1,49.0,29.85,SW,219,0.0,3.0,80,0.00,,,0.00,VWS V14.01,2013-06-03 06:31:00,
2013-06-03 02:37:00,55.0,49.0,29.85,SSE,152,0.0,3.0,80,0.00,,,0.00,VWS V14.01,2013-06-03 06:37:00,
2013-06-03 02:42:00,55.1,48.7,29.85,South,181,0.0,3.0,79,0.00,,,0.00,VWS V14.01,2013-06-03 06:42:00,
2013-06-03 02:47:00,55.1,49.0,29.85,SSW,212,0.0,3.0,80,0.00,,,0.00,VWS V14.01,2013-06-03 06:47:00,
2013-06-03 02:52:00,55.1,48.7,29.85,South,191,0.0,3.0,79,0.00,,,0.00,VWS V14.01,2013-06-03 06:52:00,
2013-06-03 02:57:00,55.1,49.0,29.85,SSE,151,0.0,3.0,80,0.00,,,0.00,VWS V14.01,2013-06-03 06:57:00,
2013-06-03 03:02:00,55.1,49.0,29.85,SSE,151,0.0,3.0,80,0.00,,,0.00,VWS V14.01,2013-06-03 07:02:00,
2013-06-03 03:07:00,55.1,49.0,29.85,SE,146,0.0,1.0,80,0.00,,,0.00,VWS V14.01,2013-06-03 07:07:00,
2013-06-03 03:12:00,55.1,49.0,29.85,SSE,148,0.0,1.0,80,0.00,,,0.00,VWS V14.01,2013-06-03 07:12:00,
2013-06-03 03:17:00,55.1,49.0,29.85,WSW,246,1.0,1.0,80,0.00,,,0.00,VWS V14.01,2013-06-03 07:17:00,
2013-06-03 03:22:00,55.0,49.0,29.85,SE,144,0.0,3.0,80,0.00,,,0.00,VWS V14.01,2013-06-03 07:22:00,
2013-06-03 03:27:00,55.0,49.0,29.85,SW,228,0.0,3.0,80,0.00,,,0.00,VWS V14.01,2013-06-03 07:27:00,
2013-06-03 03:32:00,54.9,48.5,29.85,SE,134,0.0,3.0,79,0.00,,,0.00,VWS V14.01,2013-06-03 07:32:00,
2013-06-03 03:37:00,54.7,48.3,29.85,SSW,212,0.0,3.0,79,0.00,,,0.00,VWS V14.01,2013-06-03 07:37:00,
2013-06-03 03:42:00,54.6,48.2,29.85,SE,128,1.0,3.0,79,0.00,,,0.00,VWS V14.01,2013-06-03 07:42:00,
2013-06-03 03:47:00,54.5,48.1,29.86,West,260,0.0,3.0,79,0.00,,,0.00,VWS V14.01,2013-06-03 07:47:00,
2013-06-03 03:52:00,54.4,48.0,29.86,SE,132,0.0,3.0,79,0.00,,,0.00,VWS V14.01,2013-06-03 07:52:00,
2013-06-03 03:57:00,54.2,47.5,29.86,ESE,117,0.0,5.0,78,0.00,,,0.00,VWS V14.01,2013-06-03 07:57:00,
2013-06-03 04:02:00,54.1,47.4,29.86,WSW,240,0.0,5.0,78,0.00,,,0.00,VWS V14.01,2013-06-03 08:02:00,
2013-06-03 04:07:00,54.0,47.3,29.86,South,174,0.0,5.0,78,0.00,,,0.00,VWS V14.01,2013-06-03 08:07:00,
2013-06-03 04:12:00,53.9,47.2,29.86,SSW,212,0.0,5.0,78,0.00,,,0.00,VWS V14.01,2013-06-03 08:12:00,
2013-06-03 04:17:00,53.8,47.5,29.87,SW,221,2.0,5.0,79,0.00,,,0.00,VWS V14.01,2013-06-03 08:17:00,
2013-06-03 04:22:00,53.7,47.0,29.87,WNW,288,1.0,5.0,78,0.00,,,0.00,VWS V14.01,2013-06-03 08:22:00,
2013-06-03 04:27:00,53.6,46.9,29.86,SSE,162,0.0,5.0,78,0.00,,,0.00,VWS V14.01,2013-06-03 08:27:00,
2013-06-03 04:32:00,53.6,46.9,29.87,SSE,162,0.0,5.0,78,0.00,,,0.00,VWS V14.01,2013-06-03 08:32:00,
2013-06-03 04:37:00,53.6,46.9,29.87,SSE,162,0.0,5.0,78,0.00,,,0.00,VWS V14.01,2013-06-03 08:37:00,
2013-06-03 04:42:00,53.5,47.2,29.87,SSW,200,0.0,5.0,79,0.00,,,0.00,VWS V14.01,2013-06-03 08:42:00,
2013-06-03 04:47:00,53.4,47.1,29.87,WSW,245,1.0,5.0,79,0.00,,,0.00,VWS V14.01,2013-06-03 08:47:00,
2013-06-03 04:52:00,53.3,47.0,29.87,North,358,0.0,5.0,79,0.00,,,0.00,VWS V14.01,2013-06-03 08:52:00,
2013-06-03 04:57:00,53.2,46.9,29.87,SSW,208,0.0,5.0,79,0.00,,,0.00,VWS V14.01,2013-06-03 08:57:00,
2013-06-03 05:02:00,53.2,46.5,29.87,NNW,332,2.0,5.0,78,0.00,,,0.00,VWS V14.01,2013-06-03 09:02:00,
2013-06-03 05:07:00,53.2,46.5,29.87,NW,318,3.0,4.0,78,0.00,,,0.00,VWS V14.01,2013-06-03 09:07:00,
2013-06-03 05:12:00,53.1,46.1,29.87,SW,225,0.0,4.0,77,0.00,,,0.00,VWS V14.01,2013-06-03 09:12:00,
2013-06-03 05:17:00,53.0,46.3,29.88,ESE,113,0.0,4.0,78,0.00,,,0.00,VWS V14.01,2013-06-03 09:17:00,
2013-06-03 05:22:00,53.0,46.0,29.88,South,191,0.0,4.0,77,0.00,,,0.00,VWS V14.01,2013-06-03 09:22:00,
2013-06-03 05:27:00,52.9,46.2,29.88,SW,233,1.0,4.0,78,0.00,,,0.00,VWS V14.01,2013-06-03 09:27:00,
2013-06-03 05:32:00,52.8,45.8,29.88,ESE,105,2.0,4.0,77,0.00,,,0.00,VWS V14.01,2013-06-03 09:32:00,
2013-06-03 05:37:00,52.7,46.0,29.88,South,183,0.0,4.0,78,0.00,,,0.00,VWS V14.01,2013-06-03 09:37:00,
2013-06-03 05:42:00,52.6,45.6,29.88,South,175,0.0,5.0,77,0.00,,,0.00,VWS V14.01,2013-06-03 09:42:00,
2013-06-03 05:47:00,52.6,46.0,29.88,ESE,115,0.0,5.0,78,0.00,,,0.00,VWS V14.01,2013-06-03 09:47:00,
2013-06-03 05:52:00,52.5,45.5,29.88,NW,304,0.0,5.0,77,0.00,,,0.00,VWS V14.01,2013-06-03 09:52:00,
2013-06-03 05:57:00,52.5,45.8,29.89,WSW,251,0.0,5.0,78,0.00,,,0.00,VWS V14.01,2013-06-03 09:57:00,
2013-06-03 06:02:00,52.4,46.1,29.89,NE,40,0.0,5.0,79,0.00,,,0.00,VWS V14.01,2013-06-03 10:02:00,
2013-06-03 06:07:00,52.4,46.1,29.89,SSE,163,0.0,4.0,79,0.00,,,0.00,VWS V14.01,2013-06-03 10:07:00,
2013-06-03 06:12:00,52.4,46.1,29.89,WSW,248,0.0,4.0,79,0.00,,,0.00,VWS V14.01,2013-06-03 10:12:00,
2013-06-03 06:17:00,52.3,46.0,29.89,West,259,1.0,4.0,79,0.00,,,0.00,VWS V14.01,2013-06-03 10:17:00,
2013-06-03 06:22:00,52.3,46.0,29.89,West,281,0.0,4.0,79,0.00,,,0.00,VWS V14.01,2013-06-03 10:22:00,
2013-06-03 06:27:00,52.2,46.2,29.89,East,100,0.0,5.0,80,0.00,,,0.00,VWS V14.01,2013-06-03 10:27:00,
2013-06-03 06:32:00,52.2,46.2,29.89,SW,219,1.0,5.0,80,0.00,,,0.00,VWS V14.01,2013-06-03 10:32:00,
2013-06-03 06:37:00,52.1,46.1,29.89,WSW,253,1.0,5.0,80,0.00,,,0.00,VWS V14.01,2013-06-03 10:37:00,
2013-06-03 06:42:00,52.0,46.0,29.89,SE,139,0.0,5.0,80,0.00,,,0.00,VWS V14.01,2013-06-03 10:42:00,
2013-06-03 06:47:00,52.0,46.0,29.89,SE,139,0.0,5.0,80,0.00,,,0.00,VWS V14.01,2013-06-03 10:47:00,
2013-06-03 06:52:00,51.9,45.9,29.89,SW,223,0.0,5.0,80,0.00,,,0.00,VWS V14.01,2013-06-03 10:52:00,
2013-06-03 06:56:00,51.7,45.4,29.90,West,271,1.0,5.0,79,0.00,,,0.00,VWS V14.01,2013-06-03 10:56:00,
2013-06-03 07:01:00,51.5,45.2,29.90,ESE,107,2.0,5.0,79,0.00,,,0.00,VWS V14.01,2013-06-03 11:01:00,
2013-06-03 07:06:00,51.4,45.1,29.90,ESE,107,1.0,4.0,79,0.00,,,0.00,VWS V14.01,2013-06-03 11:06:00,
2013-06-03 07:11:00,51.2,45.2,29.91,North,355,0.0,4.0,80,0.00,,,0.00,VWS V14.01,2013-06-03 11:11:00,
2013-06-03 07:16:00,51.0,44.7,29.91,ESE,120,0.0,4.0,79,0.00,,,0.00,VWS V14.01,2013-06-03 11:16:00,
2013-06-03 07:21:00,50.9,44.6,29.91,SSE,160,0.0,4.0,79,0.00,,,0.00,VWS V14.01,2013-06-03 11:21:00,
2013-06-03 07:26:00,50.7,44.1,29.91,SSW,203,0.0,4.0,78,0.00,,,0.00,VWS V14.01,2013-06-03 11:26:00,
2013-06-03 07:31:00,50.5,44.2,29.91,SW,235,2.0,4.0,79,0.00,,,0.00,VWS V14.01,2013-06-03 11:31:00,
2013-06-03 07:36:00,50.3,44.0,29.91,SSE,158,1.0,4.0,79,0.00,,,0.00,VWS V14.01,2013-06-03 11:36:00,
2013-06-03 07:41:00,50.3,44.4,29.91,NW,320,3.0,4.0,80,0.00,,,0.00,VWS V14.01,2013-06-03 11:41:00,
2013-06-03 07:47:00,50.3,44.4,29.92,South,173,0.0,4.0,80,0.00,,,0.00,VWS V14.01,2013-06-03 11:47:00,
2013-06-03 07:52:00,50.3,44.0,29.92,SE,135,0.0,4.0,79,0.00,,,0.00,VWS V14.01,2013-06-03 11:52:00,
2013-06-03 07:57:00,50.3,44.0,29.92,East,88,3.0,4.0,79,0.00,,,0.00,VWS V14.01,2013-06-03 11:57:00,
2013-06-03 08:02:00,50.2,44.0,29.92,WSW,241,1.0,4.0,79,0.00,,,0.00,VWS V14.01,2013-06-03 12:02:00,
2013-06-03 08:07:00,50.2,43.6,29.92,SSE,150,0.0,5.0,78,0.00,,,0.00,VWS V14.01,2013-06-03 12:07:00,
2013-06-03 08:12:00,50.4,43.8,29.92,SSE,148,0.0,5.0,78,0.00,,,0.00,VWS V14.01,2013-06-03 12:12:00,
2013-06-03 08:16:00,50.5,43.9,29.92,East,97,0.0,5.0,78,0.00,,,0.00,VWS V14.01,2013-06-03 12:16:00,
2013-06-03 08:21:00,50.7,44.4,29.92,SE,132,0.0,5.0,79,0.00,,,0.00,VWS V14.01,2013-06-03 12:21:00,
2013-06-03 08:26:00,50.7,43.8,29.92,ESE,113,0.0,5.0,77,0.00,,,0.00,VWS V14.01,2013-06-03 12:26:00,
2013-06-03 08:32:00,51.0,44.4,29.92,ESE,113,0.0,5.0,78,0.00,,,0.00,VWS V14.01,2013-06-03 12:32:00,
2013-06-03 08:37:00,51.1,44.5,29.92,ESE,118,1.0,5.0,78,0.00,,,0.00,VWS V14.01,2013-06-03 12:37:00,
2013-06-03 08:42:00,51.1,44.5,29.92,East,98,0.0,5.0,78,0.00,,,0.00,VWS V14.01,2013-06-03 12:42:00,
2013-06-03 08:47:00,51.3,44.7,29.93,South,181,0.0,5.0,78,0.00,,,0.00,VWS V14.01,2013-06-03 12:47:00,
2013-06-03 08:52:00,51.4,44.1,29.93,ESE,110,1.0,5.0,76,0.00,,,0.00,VWS V14.01,2013-06-03 12:52:00,
2013-06-03 08:57:00,51.5,44.5,29.93,ESE,110,0.0,5.0,77,0.00,,,0.00,VWS V14.01,2013-06-03 12:57:00,
2013-06-03 09:02:00,51.7,45.1,29.92,East,100,0.0,5.0,78,0.00,,,0.00,VWS V14.01,2013-06-03 13:02:00,
2013-06-03 09:07:00,52.1,45.8,29.93,West,266,0.0,2.0,79,0.00,,,0.00,VWS V14.01,2013-06-03 13:07:00,
2013-06-03 09:12:00,52.3,45.0,29.92,ESE,121,1.0,2.0,76,0.00,,,0.00,VWS V14.01,2013-06-03 13:12:00,
2013-06-03 09:17:00,52.6,45.6,29.93,WNW,282,2.0,3.0,77,0.00,,,0.00,VWS V14.01,2013-06-03 13:17:00,
2013-06-03 09:22:00,52.9,45.9,29.93,WNW,296,0.0,5.0,77,0.00,,,0.00,VWS V14.01,2013-06-03 13:22:00,
2013-06-03 09:27:00,53.3,45.9,29.93,ESE,105,0.0,5.0,76,0.00,,,0.00,VWS V14.01,2013-06-03 13:27:00,
2013-06-03 09:32:00,53.4,45.7,29.93,East,87,0.0,5.0,75,0.00,,,0.00,VWS V14.01,2013-06-03 13:32:00,
2013-06-03 09:37:00,53.4,46.0,29.93,NNW,334,2.0,5.0,76,0.00,,,0.00,VWS V14.01,2013-06-03 13:37:00,
2013-06-03 09:42:00,53.5,45.8,29.93,East,98,2.0,5.0,75,0.00,,,0.00,VWS V14.01,2013-06-03 13:42:00,
2013-06-03 09:47:00,53.7,46.3,29.93,SE,126,0.0,5.0,76,0.00,,,0.00,VWS V14.01,2013-06-03 13:47:00,
2013-06-03 09:52:00,54.1,46.7,29.93,ESE,122,0.0,5.0,76,0.00,,,0.00,VWS V14.01,2013-06-03 13:52:00,
2013-06-03 09:57:00,54.6,46.5,29.93,East,91,1.0,5.0,74,0.00,,,0.00,VWS V14.01,2013-06-03 13:57:00,
2013-06-03 10:02:00,54.7,45.9,29.93,East,97,0.0,5.0,72,0.00,,,0.00,VWS V14.01,2013-06-03 14:02:00,
2013-06-03 10:07:00,55.0,47.2,29.93,East,101,0.0,1.0,75,0.00,,,0.00,VWS V14.01,2013-06-03 14:07:00,
2013-06-03 10:12:00,55.3,46.4,29.93,ESE,102,0.0,1.0,72,0.00,,,0.00,VWS V14.01,2013-06-03 14:12:00,
2013-06-03 10:17:00,55.6,46.0,29.93,East,95,0.0,3.0,70,0.00,,,0.00,VWS V14.01,2013-06-03 14:17:00,
2013-06-03 10:22:00,55.9,46.7,29.93,SW,221,1.0,3.0,71,0.00,,,0.00,VWS V14.01,2013-06-03 14:22:00,
2013-06-03 10:27:00,56.1,46.5,29.93,NW,304,1.0,3.0,70,0.00,,,0.00,VWS V14.01,2013-06-03 14:27:00,
2013-06-03 10:32:00,56.2,46.6,29.93,WNW,285,1.0,4.0,70,0.00,,,0.00,VWS V14.01,2013-06-03 14:32:00,
2013-06-03 10:37:00,56.4,46.4,29.93,WSW,243,0.0,4.0,69,0.00,,,0.00,VWS V14.01,2013-06-03 14:37:00,
2013-06-03 10:42:00,56.6,46.6,29.93,WNW,300,0.0,4.0,69,0.00,,,0.00,VWS V14.01,2013-06-03 14:42:00,
2013-06-03 10:47:00,57.2,48.3,29.94,NW,309,3.0,4.0,72,0.00,,,0.00,VWS V14.01,2013-06-03 14:47:00,
2013-06-03 10:52:00,57.3,47.2,29.93,ESE,108,0.0,4.0,69,0.00,,,0.00,VWS V14.01,2013-06-03 14:52:00,
2013-06-03 10:57:00,57.4,46.9,29.93,NW,312,0.0,4.0,68,0.00,,,0.00,VWS V14.01,2013-06-03 14:57:00,
2013-06-03 11:02:00,57.5,47.0,29.94,WSW,252,0.0,4.0,68,0.00,,,0.00,VWS V14.01,2013-06-03 15:02:00,
2013-06-03 11:07:00,57.3,47.2,29.94,NW,311,0.0,3.0,69,0.00,,,0.00,VWS V14.01,2013-06-03 15:07:00,
2013-06-03 11:12:00,57.6,46.7,29.94,SSW,198,0.0,3.0,67,0.00,,,0.00,VWS V14.01,2013-06-03 15:12:00,
2013-06-03 11:17:00,57.9,46.2,29.94,East,98,0.0,3.0,65,0.00,,,0.00,VWS V14.01,2013-06-03 15:17:00,
2013-06-03 11:22:00,58.2,45.7,29.94,ESE,102,2.0,4.0,63,0.00,,,0.00,VWS V14.01,2013-06-03 15:22:00,
2013-06-03 11:27:00,58.3,45.3,29.94,East,100,0.0,4.0,62,0.00,,,0.00,VWS V14.01,2013-06-03 15:27:00,
2013-06-03 11:32:00,58.3,45.3,29.94,WSW,258,0.0,4.0,62,0.00,,,0.00,VWS V14.01,2013-06-03 15:32:00,
2013-06-03 11:37:00,58.6,46.9,29.94,WNW,296,1.0,4.0,65,0.00,,,0.00,VWS V14.01,2013-06-03 15:37:00,
2013-06-03 11:42:00,59.1,47.4,29.94,ESE,107,0.0,4.0,65,0.00,,,0.00,VWS V14.01,2013-06-03 15:42:00,
2013-06-03 11:47:00,59.1,45.7,29.94,East,92,3.0,4.0,61,0.00,,,0.00,VWS V14.01,2013-06-03 15:47:00,
2013-06-03 11:52:00,59.2,46.2,29.94,SE,125,0.0,4.0,62,0.00,,,0.00,VWS V14.01,2013-06-03 15:52:00,
2013-06-03 11:57:00,59.3,46.3,29.94,SSW,202,0.0,4.0,62,0.00,,,0.00,VWS V14.01,2013-06-03 15:57:00,
2013-06-03 12:02:00,59.2,46.2,29.94,West,267,1.0,4.0,62,0.00,,,0.00,VWS V14.01,2013-06-03 16:02:00,
2013-06-03 12:07:00,59.3,45.4,29.94,SE,136,0.0,3.0,60,0.00,,,0.00,VWS V14.01,2013-06-03 16:07:00,
2013-06-03 12:12:00,59.5,47.3,29.94,SSE,163,0.0,3.0,64,0.00,,,0.00,VWS V14.01,2013-06-03 16:12:00,
2013-06-03 12:17:00,59.7,45.8,29.94,NW,320,4.0,4.0,60,0.00,,,0.00,VWS V14.01,2013-06-03 16:17:00,
2013-06-03 12:22:00,59.9,45.1,29.94,West,260,0.0,4.0,58,0.00,,,0.00,VWS V14.01,2013-06-03 16:22:00,
2013-06-03 12:27:00,60.2,44.9,29.94,SSW,207,1.0,5.0,57,0.00,,,0.00,VWS V14.01,2013-06-03 16:27:00,
2013-06-03 12:32:00,60.7,45.8,29.94,East,96,0.0,6.0,58,0.00,,,0.00,VWS V14.01,2013-06-03 16:32:00,
2013-06-03 12:37:00,60.9,43.7,29.94,West,278,3.0,6.0,53,0.00,,,0.00,VWS V14.01,2013-06-03 16:37:00,
2013-06-03 12:42:00,61.1,45.3,29.94,SW,226,1.0,6.0,56,0.00,,,0.00,VWS V14.01,2013-06-03 16:42:00,
2013-06-03 12:47:00,61.2,44.4,29.94,West,262,1.0,6.0,54,0.00,,,0.00,VWS V14.01,2013-06-03 16:47:00,
2013-06-03 12:52:00,61.4,43.6,29.94,East,100,0.0,6.0,52,0.00,,,0.00,VWS V14.01,2013-06-03 16:52:00,
2013-06-03 12:57:00,61.5,46.6,29.94,East,98,2.0,6.0,58,0.00,,,0.00,VWS V14.01,2013-06-03 16:57:00,
2013-06-03 13:02:00,62.1,44.8,29.94,West,259,2.0,6.0,53,0.00,,,0.00,VWS V14.01,2013-06-03 17:02:00,
2013-06-03 13:07:00,62.3,45.5,29.94,WSW,238,1.0,2.0,54,0.00,,,0.00,VWS V14.01,2013-06-03 17:07:00,
2013-06-03 13:12:00,63.1,43.7,29.94,SSW,212,0.0,5.0,49,0.00,,,0.00,VWS V14.01,2013-06-03 17:12:00,
2013-06-03 13:17:00,63.7,47.2,29.93,NNW,327,3.0,5.0,55,0.00,,,0.00,VWS V14.01,2013-06-03 17:17:00,
2013-06-03 13:22:00,64.8,44.7,29.93,West,265,3.0,6.0,48,0.00,,,0.00,VWS V14.01,2013-06-03 17:22:00,
2013-06-03 13:27:00,64.6,45.6,29.93,NW,318,3.0,6.0,50,0.00,,,0.00,VWS V14.01,2013-06-03 17:27:00,
2013-06-03 13:32:00,64.5,43.8,29.93,East,94,1.0,6.0,47,0.00,,,0.00,VWS V14.01,2013-06-03 17:32:00,
2013-06-03 13:37:00,64.7,43.5,29.93,ESE,117,2.0,6.0,46,0.00,,,0.00,VWS V14.01,2013-06-03 17:37:00,
2013-06-03 13:42:00,65.2,43.3,29.93,East,92,1.0,6.0,45,0.00,,,0.00,VWS V14.01,2013-06-03 17:42:00,
2013-06-03 13:47:00,64.7,41.1,29.93,East,101,3.0,6.0,42,0.00,,,0.00,VWS V14.01,2013-06-03 17:47:00,
2013-06-03 13:52:00,64.8,40.6,29.93,West,278,0.0,6.0,41,0.00,,,0.00,VWS V14.01,2013-06-03 17:52:00,
2013-06-03 13:57:00,65.4,42.9,29.93,WNW,288,3.0,6.0,44,0.00,,,0.00,VWS V14.01,2013-06-03 17:57:00,
2013-06-03 14:02:00,65.6,39.3,29.93,WSW,238,0.0,6.0,38,0.00,,,0.00,VWS V14.01,2013-06-03 18:02:00,
2013-06-03 14:07:00,65.8,40.2,29.93,SW,228,1.0,3.0,39,0.00,,,0.00,VWS V14.01,2013-06-03 18:07:00,
2013-06-03 14:12:00,66.0,39.7,29.93,East,99,2.0,4.0,38,0.00,,,0.00,VWS V14.01,2013-06-03 18:12:00,
2013-06-03 14:17:00,66.5,42.1,29.93,East,97,0.0,4.0,41,0.00,,,0.00,VWS V14.01,2013-06-03 18:17:00,
2013-06-03 14:22:00,66.6,44.6,29.92,East,100,0.0,4.0,45,0.00,,,0.00,VWS V14.01,2013-06-03 18:22:00,
2013-06-03 14:27:00,67.9,42.1,29.92,East,84,1.0,4.0,39,0.00,,,0.00,VWS V14.01,2013-06-03 18:27:00,
2013-06-03 14:32:00,68.3,41.7,29.92,SE,142,1.0,4.0,38,0.00,,,0.00,VWS V14.01,2013-06-03 18:32:00,
2013-06-03 14:37:00,68.4,42.5,29.92,West,276,4.0,5.0,39,0.00,,,0.00,VWS V14.01,2013-06-03 18:37:00,
2013-06-03 14:42:00,67.9,42.1,29.92,WNW,295,3.0,5.0,39,0.00,,,0.00,VWS V14.01,2013-06-03 18:42:00,
2013-06-03 14:47:00,67.6,43.1,29.91,West,281,0.0,5.0,41,0.00,,,0.00,VWS V14.01,2013-06-03 18:47:00,
2013-06-03 14:52:00,67.4,40.9,29.91,North,4,2.0,5.0,38,0.00,,,0.00,VWS V14.01,2013-06-03 18:52:00,
2013-06-03 14:57:00,67.5,41.7,29.91,NW,323,2.0,5.0,39,0.00,,,0.00,VWS V14.01,2013-06-03 18:57:00,
2013-06-03 15:02:00,67.3,40.8,29.91,SSW,205,0.0,5.0,38,0.00,,,0.00,VWS V14.01,2013-06-03 19:02:00,
2013-06-03 15:07:00,67.5,41.0,29.90,ENE,57,0.0,4.0,38,0.00,,,0.00,VWS V14.01,2013-06-03 19:07:00,
2013-06-03 15:12:00,68.4,42.5,29.90,NW,315,1.0,4.0,39,0.00,,,0.00,VWS V14.01,2013-06-03 19:12:00,
2013-06-03 15:17:00,68.8,41.5,29.90,SSE,153,0.0,4.0,37,0.00,,,0.00,VWS V14.01,2013-06-03 19:17:00,
2013-06-03 15:22:00,69.0,41.7,29.90,SSW,204,0.0,6.0,37,0.00,,,0.00,VWS V14.01,2013-06-03 19:22:00,
2013-06-03 15:27:00,68.6,38.4,29.90,ESE,111,1.0,6.0,33,0.00,,,0.00,VWS V14.01,2013-06-03 19:27:00,
2013-06-03 15:32:00,68.3,40.3,29.90,WNW,298,3.0,6.0,36,0.00,,,0.00,VWS V14.01,2013-06-03 19:32:00,
2013-06-03 15:37:00,68.8,39.3,29.90,NW,323,1.0,6.0,34,0.00,,,0.00,VWS V14.01,2013-06-03 19:37:00,
2013-06-03 15:42:00,68.8,39.3,29.89,SW,223,0.0,6.0,34,0.00,,,0.00,VWS V14.01,2013-06-03 19:42:00,
2013-06-03 15:47:00,69.3,42.6,29.89,South,190,0.0,6.0,38,0.00,,,0.00,VWS V14.01,2013-06-03 19:47:00,
2013-06-03 15:52:00,69.7,42.3,29.89,NW,315,1.0,6.0,37,0.00,,,0.00,VWS V14.01,2013-06-03 19:52:00,
2013-06-03 15:57:00,69.7,41.6,29.89,SSE,157,0.0,6.0,36,0.00,,,0.00,VWS V14.01,2013-06-03 19:57:00,
2013-06-03 16:02:00,70.0,42.6,29.89,East,101,1.0,6.0,37,0.00,,,0.00,VWS V14.01,2013-06-03 20:02:00,
2013-06-03 16:07:00,69.7,40.8,29.88,West,262,1.0,3.0,35,0.00,,,0.00,VWS V14.01,2013-06-03 20:07:00,
2013-06-03 16:12:00,69.8,43.8,29.88,West,280,1.0,5.0,39,0.00,,,0.00,VWS V14.01,2013-06-03 20:12:00,
2013-06-03 16:17:00,69.3,40.5,29.88,East,98,1.0,5.0,35,0.00,,,0.00,VWS V14.01,2013-06-03 20:17:00,
2013-06-03 16:22:00,68.9,40.9,29.88,West,270,2.0,5.0,36,0.00,,,0.00,VWS V14.01,2013-06-03 20:22:00,
2013-06-03 16:27:00,69.4,44.1,29.88,East,98,2.0,5.0,40,0.00,,,0.00,VWS V14.01,2013-06-03 20:27:00,
2013-06-03 16:32:00,69.1,41.8,29.88,SSW,211,1.0,6.0,37,0.00,,,0.00,VWS V14.01,2013-06-03 20:32:00,
2013-06-03 16:37:00,69.2,42.5,29.88,NNE,13,3.0,6.0,38,0.00,,,0.00,VWS V14.01,2013-06-03 20:37:00,
2013-06-03 16:42:00,69.2,40.4,29.88,SSW,212,0.0,6.0,35,0.00,,,0.00,VWS V14.01,2013-06-03 20:42:00,
2013-06-03 16:47:00,69.1,43.1,29.88,SE,127,0.0,6.0,39,0.00,,,0.00,VWS V14.01,2013-06-03 20:47:00,
2013-06-03 16:52:00,69.0,41.0,29.88,WNW,295,3.0,6.0,36,0.00,,,0.00,VWS V14.01,2013-06-03 20:52:00,
2013-06-03 16:57:00,69.0,43.0,29.89,WNW,300,3.0,6.0,39,0.00,,,0.00,VWS V14.01,2013-06-03 20:57:00,
2013-06-03 17:02:00,69.5,41.4,29.88,SW,236,1.0,6.0,36,0.00,,,0.00,VWS V14.01,2013-06-03 21:02:00,
2013-06-03 17:07:00,69.0,39.5,29.89,SW,226,0.0,5.0,34,0.00,,,0.00,VWS V14.01,2013-06-03 21:07:00,
2013-06-03 17:12:00,68.8,40.1,29.89,NW,323,3.0,5.0,35,0.00,,,0.00,VWS V14.01,2013-06-03 21:12:00,
2013-06-03 17:17:00,68.8,40.1,29.90,East,97,1.0,5.0,35,0.00,,,0.00,VWS V14.01,2013-06-03 21:17:00,
2013-06-03 17:22:00,68.6,39.9,29.89,WNW,290,2.0,6.0,35,0.00,,,0.00,VWS V14.01,2013-06-03 21:22:00,
2013-06-03 17:27:00,68.6,39.9,29.90,SW,234,0.0,6.0,35,0.00,,,0.00,VWS V14.01,2013-06-03 21:27:00,
2013-06-03 17:32:00,69.0,42.4,29.89,WNW,293,1.0,6.0,38,0.00,,,0.00,VWS V14.01,2013-06-03 21:32:00,
2013-06-03 17:37:00,69.5,40.7,29.89,SSE,150,0.0,6.0,35,0.00,,,0.00,VWS V14.01,2013-06-03 21:37:00,
2013-06-03 17:42:00,69.8,39.4,29.89,NNW,343,0.0,6.0,33,0.00,,,0.00,VWS V14.01,2013-06-03 21:42:00,
2013-06-03 17:47:00,69.8,40.2,29.89,WSW,242,2.0,6.0,34,0.00,,,0.00,VWS V14.01,2013-06-03 21:47:00,
2013-06-03 17:52:00,69.5,37.6,29.89,SSE,156,1.0,6.0,31,0.00,,,0.00,VWS V14.01,2013-06-03 21:52:00,
2013-06-03 17:57:00,69.4,39.8,29.89,NW,318,1.0,6.0,34,0.00,,,0.00,VWS V14.01,2013-06-03 21:57:00,
2013-06-03 18:02:00,69.3,38.2,29.89,East,96,1.0,6.0,32,0.00,,,0.00,VWS V14.01,2013-06-03 22:02:00,
2013-06-03 18:07:00,69.0,39.5,29.89,WNW,288,1.0,2.0,34,0.00,,,0.00,VWS V14.01,2013-06-03 22:07:00,
2013-06-03 18:12:00,69.1,40.3,29.89,WNW,297,1.0,3.0,35,0.00,,,0.00,VWS V14.01,2013-06-03 22:12:00,
2013-06-03 18:17:00,69.1,38.8,29.89,West,269,2.0,3.0,33,0.00,,,0.00,VWS V14.01,2013-06-03 22:17:00,
2013-06-03 18:22:00,68.8,40.1,29.89,NNW,335,1.0,3.0,35,0.00,,,0.00,VWS V14.01,2013-06-03 22:22:00,
2013-06-03 18:27:00,69.5,39.9,29.89,SW,226,1.0,3.0,34,0.00,,,0.00,VWS V14.01,2013-06-03 22:27:00,
2013-06-03 18:32:00,69.3,41.2,29.89,SW,232,1.0,3.0,36,0.00,,,0.00,VWS V14.01,2013-06-03 22:32:00,
2013-06-03 18:37:00,69.2,40.4,29.89,West,264,0.0,4.0,35,0.00,,,0.00,VWS V14.01,2013-06-03 22:37:00,
2013-06-03 18:42:00,68.9,38.6,29.89,SE,124,2.0,4.0,33,0.00,,,0.00,VWS V14.01,2013-06-03 22:42:00,
2013-06-03 18:47:00,68.5,40.5,29.90,South,186,0.0,4.0,36,0.00,,,0.00,VWS V14.01,2013-06-03 22:47:00,
2013-06-03 18:52:00,68.7,40.7,29.90,East,94,2.0,4.0,36,0.00,,,0.00,VWS V14.01,2013-06-03 22:52:00,
2013-06-03 18:57:00,68.8,40.8,29.90,NW,317,2.0,4.0,36,0.00,,,0.00,VWS V14.01,2013-06-03 22:57:00,
2013-06-03 19:02:00,69.1,40.3,29.90,WNW,285,1.0,4.0,35,0.00,,,0.00,VWS V14.01,2013-06-03 23:02:00,
2013-06-03 19:07:00,69.0,40.2,29.90,West,279,2.0,3.0,35,0.00,,,0.00,VWS V14.01,2013-06-03 23:07:00,
2013-06-03 19:12:00,68.9,40.2,29.90,SW,229,0.0,3.0,35,0.00,,,0.00,VWS V14.01,2013-06-03 23:12:00,
2013-06-03 19:17:00,68.6,39.9,29.89,SW,224,0.0,3.0,35,0.00,,,0.00,VWS V14.01,2013-06-03 23:17:00,
2013-06-03 19:22:00,68.8,40.8,29.90,WSW,255,1.0,4.0,36,0.00,,,0.00,VWS V14.01,2013-06-03 23:22:00,
2013-06-03 19:27:00,68.4,40.4,29.90,SE,127,0.0,4.0,36,0.00,,,0.00,VWS V14.01,2013-06-03 23:27:00,
2013-06-03 19:32:00,68.3,41.7,29.90,SE,124,0.0,4.0,38,0.00,,,0.00,VWS V14.01,2013-06-03 23:32:00,
2013-06-03 19:37:00,67.9,42.7,29.90,SSW,194,0.0,4.0,40,0.00,,,0.00,VWS V14.01,2013-06-03 23:37:00,
2013-06-03 19:42:00,67.7,40.5,29.90,SE,136,0.0,4.0,37,0.00,,,0.00,VWS V14.01,2013-06-03 23:42:00,
2013-06-03 19:47:00,67.5,41.0,29.90,South,187,0.0,4.0,38,0.00,,,0.00,VWS V14.01,2013-06-03 23:47:00,
2013-06-03 19:52:00,67.2,42.1,29.90,SSW,200,0.0,4.0,40,0.00,,,0.00,VWS V14.01,2013-06-03 23:52:00,
2013-06-03 19:57:00,66.8,41.1,29.90,SSW,200,0.0,4.0,39,0.00,,,0.00,VWS V14.01,2013-06-03 23:57:00,
2013-06-03 20:02:00,66.2,41.2,29.90,SSW,197,0.0,4.0,40,0.00,,,0.00,VWS V14.01,2013-06-04 00:02:00,
2013-06-03 20:07:00,65.8,40.8,29.90,SSW,197,0.0,0.0,40,0.00,,,0.00,VWS V14.01,2013-06-04 00:07:00,
2013-06-03 20:12:00,65.4,42.9,29.90,SSW,197,0.0,0.0,44,0.00,,,0.00,VWS V14.01,2013-06-04 00:12:00,
2013-06-03 20:17:00,64.9,43.1,29.91,SSW,197,0.0,0.0,45,0.00,,,0.00,VWS V14.01,2013-06-04 00:17:00,
2013-06-03 20:22:00,64.3,43.7,29.90,SSW,197,0.0,0.0,47,0.00,,,0.00,VWS V14.01,2013-06-04 00:22:00,
2013-06-03 20:27:00,63.7,45.2,29.91,SSW,197,0.0,0.0,51,0.00,,,0.00,VWS V14.01,2013-06-04 00:27:00,
2013-06-03 20:32:00,63.1,45.7,29.91,SSW,196,0.0,0.0,53,0.00,,,0.00,VWS V14.01,2013-06-04 00:32:00,
2013-06-03 20:37:00,62.6,43.7,29.91,SSW,196,0.0,0.0,50,0.00,,,0.00,VWS V14.01,2013-06-04 00:37:00,
2013-06-03 20:42:00,62.0,43.7,29.91,SSW,197,0.0,0.0,51,0.00,,,0.00,VWS V14.01,2013-06-04 00:42:00,
2013-06-03 20:47:00,61.4,43.1,29.91,SSW,197,0.0,0.0,51,0.00,,,0.00,VWS V14.01,2013-06-04 00:47:00,
2013-06-03 20:52:00,60.9,43.7,29.91,SSW,197,0.0,0.0,53,0.00,,,0.00,VWS V14.01,2013-06-04 00:52:00,
2013-06-03 20:57:00,60.4,44.7,29.92,SSW,197,0.0,0.0,56,0.00,,,0.00,VWS V14.01,2013-06-04 00:57:00,
2013-06-03 21:02:00,59.9,44.7,29.92,SSW,197,0.0,0.0,57,0.00,,,0.00,VWS V14.01,2013-06-04 01:02:00,
2013-06-03 21:07:00,59.3,43.2,29.92,SSW,197,0.0,0.0,55,0.00,,,0.00,VWS V14.01,2013-06-04 01:07:00,
2013-06-03 21:12:00,58.9,43.7,29.92,SSW,197,0.0,0.0,57,0.00,,,0.00,VWS V14.01,2013-06-04 01:12:00,
2013-06-03 21:17:00,58.5,44.7,29.92,SSW,197,0.0,0.0,60,0.00,,,0.00,VWS V14.01,2013-06-04 01:17:00,
2013-06-03 21:22:00,58.0,44.2,29.92,SSW,197,0.0,0.0,60,0.00,,,0.00,VWS V14.01,2013-06-04 01:22:00,
2013-06-03 21:27:00,57.6,43.8,29.92,SSW,197,0.0,0.0,60,0.00,,,0.00,VWS V14.01,2013-06-04 01:27:00,
2013-06-03 21:32:00,57.2,44.3,29.92,SSW,197,0.0,0.0,62,0.00,,,0.00,VWS V14.01,2013-06-04 01:32:00,
2013-06-03 21:37:00,57.0,45.4,29.92,SSW,197,0.0,0.0,65,0.00,,,0.00,VWS V14.01,2013-06-04 01:37:00,
2013-06-03 21:42:00,56.7,45.9,29.92,SSW,197,0.0,0.0,67,0.00,,,0.00,VWS V14.01,2013-06-04 01:42:00,
2013-06-03 21:47:00,56.3,45.1,29.92,SSW,198,0.0,0.0,66,0.00,,,0.00,VWS V14.01,2013-06-04 01:47:00,
2013-06-03 21:52:00,56.0,45.2,29.92,SSW,197,0.0,0.0,67,0.00,,,0.00,VWS V14.01,2013-06-04 01:52:00,
2013-06-03 21:57:00,55.7,45.3,29.92,SSW,198,0.0,0.0,68,0.00,,,0.00,VWS V14.01,2013-06-04 01:57:00,
2013-06-03 22:02:00,55.4,45.8,29.93,SSW,197,0.0,0.0,70,0.00,,,0.00,VWS V14.01,2013-06-04 02:02:00,
2013-06-03 22:07:00,55.2,46.3,29.93,SSW,197,0.0,0.0,72,0.00,,,0.00,VWS V14.01,2013-06-04 02:07:00,
2013-06-03 22:12:00,55.2,45.6,29.93,SSW,197,0.0,0.0,70,0.00,,,0.00,VWS V14.01,2013-06-04 02:12:00,
2013-06-03 22:17:00,55.2,46.0,29.93,SSW,197,0.0,0.0,71,0.00,,,0.00,VWS V14.01,2013-06-04 02:17:00,
2013-06-03 22:22:00,55.1,46.2,29.93,SSW,198,0.0,0.0,72,0.00,,,0.00,VWS V14.01,2013-06-04 02:22:00,
2013-06-03 22:27:00,54.9,46.1,29.94,SSW,197,0.0,0.0,72,0.00,,,0.00,VWS V14.01,2013-06-04 02:27:00,
2013-06-03 22:32:00,54.8,46.0,29.94,SSW,197,0.0,0.0,72,0.00,,,0.00,VWS V14.01,2013-06-04 02:32:00,
2013-06-03 22:37:00,54.6,45.8,29.95,SSW,198,0.0,0.0,72,0.00,,,0.00,VWS V14.01,2013-06-04 02:37:00,
2013-06-03 22:42:00,54.7,45.9,29.95,SSW,194,0.0,0.0,72,0.00,,,0.00,VWS V14.01,2013-06-04 02:42:00,
2013-06-03 22:47:00,54.5,45.3,29.95,SSW,194,0.0,0.0,71,0.00,,,0.00,VWS V14.01,2013-06-04 02:47:00,
2013-06-03 22:52:00,54.3,45.5,29.95,SSW,194,0.0,0.0,72,0.00,,,0.00,VWS V14.01,2013-06-04 02:52:00,
2013-06-03 22:57:00,54.0,44.1,29.96,SSW,194,0.0,0.0,69,0.00,,,0.00,VWS V14.01,2013-06-04 02:57:00,
2013-06-03 23:02:00,53.8,45.0,29.96,SSW,194,0.0,0.0,72,0.00,,,0.00,VWS V14.01,2013-06-04 03:02:00,
2013-06-03 23:07:00,53.6,44.1,29.97,SSW,194,0.0,0.0,70,0.00,,,0.00,VWS V14.01,2013-06-04 03:07:00,
2013-06-03 23:12:00,53.4,44.2,29.97,SSW,194,0.0,0.0,71,0.00,,,0.00,VWS V14.01,2013-06-04 03:12:00,
2013-06-03 23:17:00,53.4,43.9,29.97,SSW,194,0.0,0.0,70,0.00,,,0.00,VWS V14.01,2013-06-04 03:17:00,
2013-06-03 23:22:00,53.3,43.8,29.97,SSW,194,0.0,0.0,70,0.00,,,0.00,VWS V14.01,2013-06-04 03:22:00,
2013-06-03 23:27:00,53.1,44.3,29.97,SSW,194,0.0,0.0,72,0.00,,,0.00,VWS V14.01,2013-06-04 03:27:00,
2013-06-03 23:32:00,53.2,44.4,29.97,SSW,194,0.0,0.0,72,0.00,,,0.00,VWS V14.01,2013-06-04 03:32:00,
2013-06-03 23:37:00,53.3,44.5,29.97,SSW,194,0.0,0.0,72,0.00,,,0.00,VWS V14.01,2013-06-04 03:37:00,
2013-06-03 23:42:00,53.1,45.0,29.97,SSW,194,0.0,0.0,74,0.00,,,0.00,VWS V14.01,2013-06-04 03:42:00,
2013-06-03 23:47:00,52.9,45.2,29.97,SSW,194,0.0,0.0,75,0.00,,,0.00,VWS V14.01,2013-06-04 03:47:00,
2013-06-03 23:52:00,52.8,45.1,29.97,SSW,194,0.0,0.0,75,0.00,,,0.00,VWS V14.01,2013-06-04 03:52:00,
2013-06-03 23:57:00,52.5,44.8,29.97,SSW,194,0.0,0.0,75,0.00,,,0.00,VWS V14.01,2013-06-04 03:57:00,